This is the latest recevied weather packets stored in our database for station/object KE8AFF-13. If no packets are shown the sender has not sent any weather packets the latest 10 day(s).
| Time | Temp. | Humidity | Pressure | Rain* | Wind** | Luminosity | Snow |
|---|---|---|---|---|---|---|---|
| 1778158948 | 7.22° C | 72% | 1014.8 hPa | 0 mm | - | 222 W/m² | - |
| 1778158646 | 7.22° C | 71% | 1014.8 hPa | 0 mm | - | 184 W/m² | - |
| 1778158343 | 7.78° C | 72% | 1014.8 hPa | 0 mm | - | 226 W/m² | - |
| 1778158040 | 7.78° C | 73% | 1014.9 hPa | 0 mm | - | 320 W/m² | - |
| 1778157737 | 7.22° C | 73% | 1014.9 hPa | 0 mm | - | 242 W/m² | - |
| 1778157435 | 7.22° C | 73% | 1014.7 hPa | 0 mm | - | 191 W/m² | - |
| 1778157132 | 7.22° C | 74% | 1014.9 hPa | 0 mm | - | 221 W/m² | - |
| 1778156827 | 7.22° C | 75% | 1014.7 hPa | 0 mm | - | 185 W/m² | - |
| 1778156524 | 7.22° C | 75% | 1015 hPa | 0 mm | - | 212 W/m² | - |
| 1778156219 | 6.67° C | 76% | 1014.9 hPa | 0 mm | - | 217 W/m² | - |
| 1778155915 | 6.67° C | 75% | 1014.9 hPa | 0 mm | - | 156 W/m² | - |
| 1778155612 | 6.67° C | 75% | 1014.9 hPa | 0 mm | - | 115 W/m² | - |
| 1778155309 | 6.67° C | 75% | 1014.8 hPa | 0 mm | - | 123 W/m² | - |
| 1778155005 | 6.67° C | 75% | 1014.6 hPa | 0 mm | - | 117 W/m² | - |
| 1778154700 | 6.67° C | 75% | 1014.8 hPa | 0 mm | - | 116 W/m² | - |
| 1778154397 | 6.67° C | 75% | 1014.7 hPa | 0 mm | - | 114 W/m² | - |
| 1778154094 | 6.67° C | 76% | 1014.6 hPa | 0 mm | - | 135 W/m² | - |
| 1778153792 | 6.11° C | 77% | 1014.6 hPa | 0 mm | - | 92 W/m² | - |
| 1778153488 | 6.11° C | 78% | 1014.7 hPa | 0 mm | - | 64 W/m² | - |
| 1778153186 | 6.11° C | 78% | 1014.4 hPa | 0 mm | - | 49 W/m² | - |
| 1778152883 | 6.11° C | 78% | 1014.6 hPa | 0 mm | - | 42 W/m² | - |
| 1778152580 | 6.11° C | 78% | 1014.5 hPa | 0 mm | - | 38 W/m² | - |
| 1778152276 | 5.56° C | 79% | 1014.5 hPa | 0 mm | - | 33 W/m² | - |
| 1778151973 | 5.56° C | 79% | 1014.3 hPa | 0 mm | - | 33 W/m² | - |
| 1778151670 | 5.56° C | 80% | 1014.1 hPa | 0 mm | - | 28 W/m² | - |
* Rain latest hour (hover to see other rain measurements)
** Current wind speed in m/s (hover to see current wind gust speed)